Weather History for Boone, IA

Change the Weather History Date:

Monday, April 1, 2013

  Actual Average Record
Temperature  
Mean Temperature 28 °F -  
Max Temperature 35 °F 54 °F 86 °F (2003)
Min Temperature 21 °F 31 °F 18 °F (1975)
Degree Days  
Heating Degree Days 37    
Moisture  
Dew Point 17 °F    
Average Humidity 63    
Maximum Humidity 78    
Minimum Humidity 46    
Precipitation  
Precipitation 0.00 in - - ()
Sea Level Pressure  
Sea Level Pressure 30.24 in    
Wind  
Wind Speed 13 mph (NNW)    
Max Wind Speed 21 mph    
Max Gust Speed 26 mph    
Visibility 10 miles    
Events      
Averages and records for this station are not official NWS values.
T = Trace of Precipitation, MM = Missing Value Source: NWS Daily Summary

Daily Weather History Graph

Daily Weather History Graph

Search for Another Location

Airport:

Trip Planner

Search our weather history database for the weather conditions in past years. The results will help you decide how hot, cold, wet, or windy it might be!

Date:

Astronomy

Apr. 01, 2013 Rise Set
Actual Time 6:57 AM CDT 7:41 PM CDT
Civil Twilight 6:29 AM CDT 8:09 PM CDT
Nautical Twilight 5:56 AM CDT 8:43 PM CDT
Astronomical Twilight 5:21 AM CDT 9:17 PM CDT
Moon 12:54 AM CDT (4/1) 10:40 AM CDT (4/1)
Length of Visible Light 13h 40m
Length of Day
12h 43m
Waning Gibbous, 67% of the Moon is Illuminated
Apr 1
Waning Gibbous
Apr 2
Last Quarter
Apr 10
New
Apr 18
First Quarter
Apr 25
Full

Hourly Weather History & Observations

Time (CDT) Temp. Windchill Dew Point Humidity Pressure Visibility Wind Dir Wind Speed Gust Speed Precip Events Conditions
12:15 AM 28.2 °F 17.2 °F 20.1 °F 72% 30.11 in 10.0 mi NNW 13.8 mph - N/A   Scattered Clouds
12:35 AM 27.5 °F 16.3 °F 19.9 °F 73% 30.11 in 10.0 mi NNW 13.8 mph - N/A   Clear
12:55 AM 26.6 °F 14.3 °F 17.8 °F 69% 30.12 in 10.0 mi NNW 16.1 mph - N/A   Clear
1:15 AM 26.4 °F 13.6 °F 18.7 °F 73% 30.13 in 10.0 mi NNW 17.3 mph 21.9 mph N/A   Clear
1:35 AM 26.2 °F 13.4 °F 18.7 °F 73% 30.13 in 10.0 mi NNW 17.3 mph 26.5 mph N/A   Clear
1:55 AM 25.7 °F 11.5 °F 17.8 °F 72% 30.14 in 10.0 mi NNW 20.7 mph 24.2 mph N/A   Clear
2:15 AM 25.3 °F 12.2 °F 18.1 °F 74% 30.14 in 10.0 mi NNW 17.3 mph 24.2 mph N/A   Clear
2:35 AM 24.8 °F 11.9 °F 17.8 °F 75% 30.15 in 10.0 mi NNW 16.1 mph - N/A   Clear
2:55 AM 24.4 °F 10.2 °F 17.2 °F 74% 30.15 in 10.0 mi NNW 19.6 mph 25.3 mph N/A   Clear
3:15 AM 23.9 °F 9.9 °F 17.1 °F 75% 30.15 in 10.0 mi NNW 18.4 mph 23.0 mph N/A   Clear
3:35 AM 23.5 °F 9.0 °F 16.5 °F 75% 30.15 in 10.0 mi NNW 19.6 mph 25.3 mph N/A   Clear
3:55 AM 23.2 °F 9.8 °F 16.7 °F 76% 30.15 in 10.0 mi NNW 16.1 mph 25.3 mph N/A   Clear
4:15 AM 23.0 °F 9.2 °F 16.3 °F 76% 30.16 in 10.0 mi NNW 17.3 mph - N/A   Clear
4:35 AM 22.8 °F 9.9 °F 15.6 °F 74% 30.17 in 10.0 mi NNW 15.0 mph 24.2 mph N/A   Clear
5:15 AM 22.1 °F 8.9 °F 15.6 °F 76% 30.18 in 10.0 mi NNW 15.0 mph - N/A   Clear
5:35 AM 22.1 °F 10.0 °F 15.3 °F 75% 30.19 in 10.0 mi NNW 12.7 mph - N/A   Clear
5:55 AM 22.1 °F 9.5 °F 14.9 °F 74% 30.20 in 10.0 mi NNW 13.8 mph 20.7 mph N/A   Clear
6:15 AM 21.6 °F 8.8 °F 15.6 °F 78% 30.21 in 10.0 mi NNW 13.8 mph - N/A   Clear
6:55 AM 21.2 °F 10.1 °F 14.9 °F 77% 30.23 in 10.0 mi NNW 10.4 mph - N/A   Scattered Clouds
7:15 AM 21.4 °F 11.9 °F 14.9 °F 76% 30.23 in 10.0 mi NNW 8.1 mph - N/A   Clear
7:35 AM 21.9 °F 11.0 °F 14.9 °F 74% 30.25 in 10.0 mi NW 10.4 mph - N/A   Clear
7:55 AM 22.3 °F 11.5 °F 14.4 °F 72% 30.26 in 10.0 mi NW 10.4 mph - N/A   Scattered Clouds
8:15 AM 22.8 °F 12.9 °F 14.4 °F 70% 30.26 in 10.0 mi NW 9.2 mph - N/A   Scattered Clouds
8:35 AM 23.5 °F 10.8 °F 14.0 °F 67% 30.26 in 10.0 mi NNW 15.0 mph 18.4 mph N/A   Scattered Clouds
8:55 AM 24.3 °F 12.2 °F 14.0 °F 65% 30.27 in 10.0 mi NW 13.8 mph - N/A   Clear
9:15 AM 25.5 °F 13.3 °F 13.8 °F 61% 30.27 in 10.0 mi NW 15.0 mph - N/A   Clear
9:35 AM 25.9 °F 15.3 °F 14.0 °F 61% 30.27 in 10.0 mi NW 11.5 mph - N/A   Clear
9:55 AM 26.8 °F 14.9 °F 14.2 °F 59% 30.28 in 10.0 mi WNW 15.0 mph - N/A   Scattered Clouds
10:15 AM 27.7 °F 18.8 °F 14.5 °F 58% 30.28 in 10.0 mi NW 9.2 mph 18.4 mph N/A   Scattered Clouds
10:35 AM 28.8 °F 18.4 °F 14.9 °F 56% 30.28 in 10.0 mi WNW 12.7 mph - N/A   Clear
11:15 AM 30.2 °F 19.3 °F 14.9 °F 53% 30.29 in 10.0 mi NNW 15.0 mph 19.6 mph N/A   Scattered Clouds
11:35 AM 29.8 °F 20.9 °F 14.0 °F 52% 30.29 in 10.0 mi North 10.4 mph 16.1 mph N/A   Clear
11:55 AM 31.3 °F 21.1 °F 14.5 °F 50% 30.29 in 10.0 mi NW 13.8 mph 18.4 mph N/A   Clear
12:15 PM 32.0 °F 22.1 °F 15.1 °F 50% 30.29 in 10.0 mi NNW 13.8 mph - N/A   Clear
12:35 PM 32.0 °F 23.0 °F 14.9 °F 49% 30.29 in 10.0 mi NNW 11.5 mph 18.4 mph N/A   Clear
1:15 PM 33.6 °F 25.0 °F 15.1 °F 47% 30.28 in 10.0 mi North 11.5 mph 19.6 mph N/A   Clear
1:35 PM 33.4 °F 23.5 °F 14.4 °F 46% 30.28 in 10.0 mi North 15.0 mph 18.4 mph N/A   Clear
1:55 PM 34.2 °F 26.8 °F 15.6 °F 47% 30.28 in 10.0 mi North 9.2 mph 21.9 mph N/A   Clear
2:15 PM 35.2 °F 27.1 °F 16.5 °F 47% 30.27 in 10.0 mi NNW 11.5 mph 21.9 mph N/A   Clear
2:35 PM 34.3 °F 25.5 °F 16.5 °F 48% 30.27 in 10.0 mi North 12.7 mph 20.7 mph N/A   Clear
2:55 PM 35.6 °F 28.0 °F 16.9 °F 47% 30.27 in 10.0 mi North 10.4 mph 19.6 mph N/A   Clear
3:15 PM 34.7 °F 28.1 °F 15.8 °F 46% 30.27 in 10.0 mi North 8.1 mph 18.4 mph N/A   Scattered Clouds
3:35 PM 34.3 °F 25.9 °F 15.8 °F 47% 30.27 in 10.0 mi NNW 11.5 mph - N/A   Scattered Clouds
3:55 PM 34.7 °F 26.4 °F 16.7 °F 48% 30.27 in 10.0 mi NW 11.5 mph - N/A   Scattered Clouds
4:15 PM 35.6 °F 27.1 °F 17.1 °F 47% 30.26 in 10.0 mi NNW 12.7 mph - N/A   Scattered Clouds
4:35 PM 34.9 °F 27.7 °F 16.5 °F 47% 30.26 in 10.0 mi NNW 9.2 mph - N/A   Scattered Clouds
5:15 PM 34.0 °F 26.6 °F 16.5 °F 49% 30.26 in 10.0 mi NNW 9.2 mph - N/A   Clear
5:35 PM 34.0 °F 26.6 °F 16.5 °F 49% 30.25 in 10.0 mi NNW 9.2 mph - N/A   Clear
6:15 PM 34.9 °F 27.1 °F 16.3 °F 47% 30.26 in 10.0 mi NNW 10.4 mph - N/A   Clear
6:35 PM 34.3 °F 25.9 °F 16.5 °F 48% 30.26 in 10.0 mi NNW 11.5 mph - N/A   Clear
6:55 PM 33.8 °F 25.8 °F 17.2 °F 51% 30.26 in 10.0 mi North 10.4 mph - N/A   Clear
7:15 PM 32.5 °F 25.5 °F 17.6 °F 54% 30.26 in 10.0 mi North 8.1 mph - N/A   Clear
7:35 PM 31.8 °F 25.4 °F 18.0 °F 57% 30.26 in 10.0 mi North 6.9 mph - N/A   Clear
7:55 PM 30.9 °F 24.3 °F 18.3 °F 60% 30.26 in 10.0 mi North 6.9 mph - N/A   Clear
8:15 PM 29.3 °F 23.2 °F 19.4 °F 67% 30.25 in 10.0 mi North 5.8 mph - N/A   Clear
8:35 PM 28.9 °F 22.8 °F 19.4 °F 68% 30.26 in 10.0 mi North 5.8 mph - N/A   Clear
8:55 PM 28.4 °F 24.6 °F 20.3 °F 72% 30.26 in 10.0 mi NNW 3.5 mph - N/A   Clear
9:15 PM 28.0 °F 24.2 °F 20.7 °F 74% 30.27 in 10.0 mi NNW 3.5 mph - N/A   Clear
9:35 PM 28.4 °F 23.3 °F 20.7 °F 73% 30.28 in 10.0 mi NNW 4.6 mph - N/A   Clear
9:55 PM 28.9 °F 25.2 °F 20.8 °F 72% 30.28 in 10.0 mi NNW 3.5 mph - N/A   Clear
10:15 PM 28.2 °F 24.4 °F 20.8 °F 74% 30.29 in 10.0 mi NNW 3.5 mph - N/A   Clear
10:35 PM 27.7 °F 22.4 °F 20.3 °F 74% 30.29 in 10.0 mi NNW 4.6 mph - N/A   Clear
10:55 PM 27.9 °F 24.0 °F 20.3 °F 73% 30.28 in 10.0 mi NNW 3.5 mph - N/A   Clear
11:15 PM 27.1 °F 19.7 °F 19.4 °F 73% 30.28 in 10.0 mi North 6.9 mph - N/A   Clear
11:35 PM 25.3 °F 17.6 °F 18.5 °F 75% 30.28 in 10.0 mi North 6.9 mph - N/A   Clear
11:55 PM 25.9 °F 20.3 °F 19.0 °F 75% 30.28 in 10.0 mi NNW 4.6 mph - N/A   Clear